Flag for U.S.A. Weather past 2 weeks in Oxnard, California, U.S.A.

Now
64 °F

Clear.


Feels Like: 64 °F
Forecast: 65 / 75 °F
Wind: No wind

Location: Oxnard Airport

Current Time: Sep 18, 2014 at 2:59:01 AM

Latest Report: Sep 18, 2014 at 1:51 AM


Visibility: 9 mi

Pressure: 29.79 "Hg

Humidity: 84%

Dew point: 59 °F

Location of OxnardLocation

Historic Weather in Oxnard — Graph

°F

Oxnard temperature yesterday

Maximum temperature yesterday: 75 °F (at 11:51 AM)
Minimum temperature yesterday: 65 °F (at 5:51 AM)
Average temperature yesterday: 70 °F

Past Weeks' High & Low Weather Summary

 TemperatureHumidityPressure
High79 °F (Sep 15, 1:51 PM)94% (Sep 10, 10:51 PM)29.93 "Hg (Sep 10, 10:51 PM)
Low58 °F (Sep 6, 6:51 AM)37% (Sep 10, 9:51 AM)29.69 "Hg (Sep 16, 4:51 PM)
Average68 °F78%29.80 "Hg
* Reported Sep 3 1:51 AM — Sep 18 1:51 AM, Oxnard, Weather by CustomWeather, © 2014

Note: Actual official high and low records may vary slightly from our data, if they occured in-between our weather recording intervals... More about our weather records

Advertising

Oxnard weather history for previous 24 hours

 ConditionsComfort  
Time TempWeatherWind HumidityBarometerVisibility
1:51 AM
Sep 18
64 °FClear.No wind84%29.79 "Hg9 mi
12:51 AM64 °FClear.3 mph84%29.79 "Hg9 mi
11:51 PM
Sep 17
65 °FClear.6 mph81%29.78 "Hg10 mi
10:51 PM68 °FClear.8 mph76%29.78 "Hg10 mi
9:51 PM68 °FClear.8 mph73%29.77 "Hg10 mi
8:51 PM69 °FClear.8 mph70%29.75 "Hg10 mi
7:51 PM69 °FSunny.16 mph73%29.73 "Hg10 mi
6:51 PM69 °FSunny.13 mph70%29.72 "Hg8 mi
5:51 PM72 °FSunny.20 mph68%29.71 "Hg9 mi
4:51 PM74 °FSunny.15 mph62%29.71 "Hg10 mi
3:51 PM75 °FSunny.16 mph60%29.72 "Hg9 mi
2:51 PM75 °FSunny.18 mph60%29.74 "Hg9 mi
1:51 PM75 °FSunny.20 mph62%29.75 "Hg9 mi
12:51 PM74 °FSunny.16 mph64%29.77 "Hg9 mi
11:51 AM75 °FSunny.16 mph64%29.77 "Hg9 mi
10:51 AM74 °FSunny.13 mph67%29.77 "Hg9 mi
9:51 AM74 °FSunny.12 mph67%29.76 "Hg9 mi
8:51 AM71 °FSunny.10 mph78%29.74 "Hg8 mi
7:51 AM68 °FFog.No wind87%29.74 "Hg6 mi
6:51 AM65 °FFog.No wind91%29.73 "Hg5 mi
5:51 AM65 °FFog.No wind91%29.72 "Hg6 mi
4:51 AM66 °FFog.5 mph87%29.71 "Hg6 mi
3:51 AM66 °FFog.3 mph87%29.71 "Hg6 mi
2:51 AM67 °FClear.3 mph81%29.72 "Hg7 mi
Weather by CustomWeather, © 2014

See weather overviewHow to use our weather pages